Погода Жосалы

Погода Жосалы : погода сейчас, прогноз погоды и архив. Всё, что Вы хотите узнать о погоде Жосалы!

Хотите узнать прогноз погоды Жосалы? Тогда Вам сюда: Погода Жосалы

Поиск расширенной информации на нашем сайте:

Другие новости

Новости СМИ2

Главная страница сайта

Новости сайта

03.07.2017

Напоминаем, что на нашем специализированном сайте Метеоцентр.Азия вы можете получить высокодетализированные автоматические прогнозы погоды по пунктам России, СНГ и мира в авиационном формате (включающие направление и скорость ветра, видимость, явления погоды, количество и форму облачности, нижнюю и верхнюю границу облачности).


Погода Жосалы - сегодня

Время (UTC), дата Ветер
(°,м/с) 
Видим.   Явления Облачность Т
(°С)
Тd
(°С)
f(%) Тe
(°С)
Pmin
(гПа)
dP
(гПа)
Po
(мм)
O2
(г/м3)
Тmin Tmax R s Состояние
почвы
03 15.06.18 050 (СВ) 20000 м    ясно 
+24 +1.5 23 +24  1014.4  0.8  752  278           
06 15.06.18 020 (С) 20000 м    ясно 
+29.4 +1.3 16 +29  1014.7  0.5  752  273  +15.3         
09 15.06.18 310 (СЗ) 20000 м    3/0 верхняя 
[Ci fib]
+31.3 +0.2 14 +31  1014.2  -0.5  752  272           
12 15.06.18 350 (С) 20000 м    3/0 верхняя 
[Ci fib]
+32.3 -0.7 12 +32  1013.3  -0.7  751  271           
15 15.06.18 020 (С) 20000 м    ясно 
+31.8 +2.7 16 +32  1013.2  -0.1  751  271    +33.1       
18 15.06.18 240 (ЮЗ) н/о    ясно 
+22.6 +4.6 31 +23  1014.2  0.6  752  279    +33.1       
21 15.06.18 260 (З) н/о    ясно 
+18.3 +3.6 38 +19  1014  -0.4  751  283           
00 16.06.18 270 (З) 20000 м    ясно 
+15.5 +6.2 54 +17  1013.8  -0.3  751  285           
06 16.06.18 190 (Ю) 20000 м    ясно 
+31.6 +1.7 15 +32  1012.9  -0.5  751  271  +13.8         
09 16.06.18 160 (Ю) 20000 м    ясно 
+33.7 +1.7 13 +34  1010.9  -1.9  750  269           
12 16.06.18 190 (Ю) 20000 м    ясно 
+34.4 +0 11 +34  1009.7  -1.2  749  268           
15 16.06.18 140 (ЮВ) 20000 м    ясно 
+31.6 +2.9 16 +32  1008.5  -1.3  748  270    +35.3       
18 16.06.18 150 (ЮВ) н/о    ясно 
+24.5 +7.1 33 +25  1008  -0.8  747  275    +35.3       
21 16.06.18 тихо ()   н/о    ясно 
+19.2 +7.7 47 +19  1006.8  -1.3  746  280           
00 17.06.18 тихо ()   20000 м    ясно 
+16.6 +6.7 52 +17  1006.3  -0.7  746  282           
03 17.06.18 250 (З) 20000 м    3/0 верхняя 
[Ci fib]
+26 +4.3 25 +26  1005.8  -0.1  746  274           
06 17.06.18 210 (ЮЗ) 20000 м    4/0 верхняя 
[Ci]
+32.8 +3.4 16 +33  1004.4  -1.2  745  267  +16.2         
09 17.06.18 200 (Ю) 20000 м    4/3 1000 м верхняя 
[Cu hum|Ci sp]
+35.7 +2.9 13 +36  1002.3  -1.9  743  264           
12 17.06.18 250 (З) 20000 м    8/4 600 м средняя, верхняя 
[Sc diur, vesp|Ac cast|Ci sp]
+36.1 +2.3 12 +36  1001.1  -1.2  742  264           
15 17.06.18 200 (Ю) 20000 м    8/4 600 м средняя, верхняя 
[Sc diur, vesp|Ac cast|Ci sp]
+33.2 +2.1 14 +33  1000.9  -0.3  742  266    +37       
18 17.06.18 360 (С) 15-20{20}  н/о    6/0 средняя, верхняя 
[Ac cast|Ci sp]
+26.2 +5.1 26 +26  1002.3  1.2  743  272    +37       
00 18.06.18 310 (СЗ) 6{18}  20000 м    4/0 средняя, верхняя 
[Ac cast|Ci sp]
+16.7 +1.7 36 +16  1003.3  0.6  743  282           
03 18.06.18 010 (С) 20000 м    ясно 
+22 +3.6 30 +22  1003.6  0.5  744  277           
06 18.06.18 310 (СЗ) 20000 м    ясно 
+27.4 +0 17 +27  1003.8  0.4  744  272  +16.7         
09 18.06.18 300 (СЗ) 11  20000 м    ясно 
+28.8 -0.9 14 +29  1004.1  0.3  744  271           
Время (UTC), дата Ветер
(°,м/с) 
Видим.   Явления Облачность Т
(°С)
Тd
(°С)
f(%) Тe
(°С)
Pmin
(гПа)
dP
(гПа)
Po
(мм)
O2
(г/м3)
Тmin Tmax R s Состояние
почвы

Для получения пояснительной информации подведите курсор к названию столбца.

ПОГОДА Жосалы - архив

Всё, что Вы хотите узнать о погоде Жосалы - удобно и подробно!

Выберите нужную дату (начиная с 1 января 2015* года) и нажмите кнопку "Найти".
Будут отображены архивные сводки погоды по пункту Жосалы, начиная с указанной даты.


Отображать данные в формате CSV (для использования в таблицах Excel)


Внимание! Наш архив погоды предназначен исключительно для личного некоммерческого использования в познавательных целях. Если Вам необходимы официальные справки о состоянии погоды (для производственных, юридических, коммерческих и т.п. целей), обращайтесь в органы Росгидромета.

*Примечание: данная дата относится к архиву по метеостанциям СССР (Россия, СНГ, Балтия).
Архив по метеостанциям Зарубежной Европы и Азии (кроме Китая) хранится 10 дней, по другим регионам земного шара (Китай, Африка, Америка, Австралия, Океания) - 1 день.

Жосалы - район местоположения метеостанции


Название, широта, долгота, высота метеостанции:
Жосалы (Джусалы) 45.5°ш. 64.1°д. 103 м над ур. моря [Казахстан]

Дополнительная информация

В oтличие oт бoльшинства пoгoдных сайтoв мы публикуем пoдрoбную метеoинфoрмацию в детальнoм прoфессиoнальнoм фoрмате.

Характеристики температуры и влажнoсти вoздуха измеряются на высoте 2 м в тени вдали oт зданий и деревьев.
Скoрoсть ветра измеряется на высoте 10 м (на урoвне рoста челoвека скoрoсть ветра ниже в 1.5-2 раза). Если метеoстанция нахoдится в гoрoде или в лесу, тo скoрoсть ветра занижена на 2-4 м/с пo сравнению с oткрытым местoм. Скoрoсть ветра над акватoриями крупных рек и oзёр, а также на вершинах хoлмoв на 2-5 м/с выше, чем в oбычных услoвиях.
Атмoсфернoе давление в разных тoчках местнoсти мoжет значительнo oтличаться oт давления на метеoстанции, в зависимoсти oт услoвий рельефа (при пoдъёме на 10 м давление пoнижается примернo на 1 мм рт.ст.).